This demonstration page uses our WeatherBlox Daily Observations layout. Learn more.

Left ArrowRight Arrow

39.51506, -84.39828

Hourly Observations for September 6, 2020

Temp ( °F °C ) Dew Point ( °F °C ) Humidity (%) Winds ( mph kmh ) Pressure ( in mb ) Visibility ( mi km ) Precip ( " mm )
12:15 am 00:15 Clear 64 17.8 57 13.9 78 78 SW 3 6 30.22 1023 10 16.0934 0 0
12:35 am 00:35 Clear 64 17.6 57 13.8 79 79 Calm 30.22 1023 10 16.0934 0 0
12:55 am 00:55 Partly Cloudy 64 17.9 57 13.8 77 77 N 7 11 30.24 1024 10 16.0934 0 0
1:15 am 01:15 Mostly Cloudy 63 17 57 13.7 81 81 Calm 30.24 1024 10 16.0934 0 0
1:35 am 01:35 Mostly Cloudy 64 17.7 57 13.8 78 78 Calm 30.23 1024 10 16.0934 0 0
1:55 am 01:55 Mostly Cloudy 62 16.4 57 14 86 86 Calm 30.22 1023 10 16.0934 0 0
2:15 am 02:15 Cloudy 62 16.6 58 14.4 87 87 Calm 30.22 1023 10 16.0934 0 0
2:35 am 02:35 Mostly Cloudy 63 17.3 58 14.3 83 83 Calm 30.22 1023 10 16.0934 0 0
2:55 am 02:55 Mostly Cloudy 62 16.8 58 14.7 88 88 Calm 30.22 1023 10 16.0934 0 0
3:15 am 03:15 Partly Cloudy 61 16.3 57 13.7 85 85 Calm 30.22 1023 10 16.0934 0 0
3:35 am 03:35 Clear 61 15.9 58 14.3 90 90 Calm 30.22 1024 10 16.0934 0 0
3:55 am 03:55 Clear 60 15.7 59 15.1 96 96 Calm 30.21 1023 10 16.0934 0 0
4:15 am 04:15 Clear 59 15 58 14.4 96 96 Calm 30.22 1023 10 16.0934 0 0
4:35 am 04:35 Clear 58 14.2 57 13.9 98 98 Calm 30.21 1023 10 16.0934 0 0
4:55 am 04:55 Clear 57 14 57 14 100 100 Calm 30.2 1023 10 16.0934 0 0
5:15 am 05:15 Clear 57 14 N/A N/A Calm 30.2 1023 10 16.0934 0 0
5:35 am 05:35 Clear 55 13 N/A N/A Calm 30.21 1023 10 16.0934 0 0
5:55 am 05:55 Clear 55 13 N/A N/A Calm 30.2 1023 10 16.0934 0 0
6:15 am 06:15 Clear 55 12.7 55 12.6 99 99 Calm 30.21 1023 10 16.0934 0 0
6:35 am 06:35 Clear 55 12.8 55 12.7 99 99 Calm 30.22 1023 10 16.0934 0 0
6:55 am 06:55 Clear 54 12 54 12 100 100 Calm 30.22 1023 10 16.0934 0 0
7:15 am 07:15 Sunny 54 12 54 12 100 100 Calm 30.22 1023 10 16.0934 0 0
7:35 am 07:35 Sunny 55 13 N/A N/A Calm 30.23 1024 10 16.0934 0 0
7:55 am 07:55 Sunny 55 13 N/A N/A Calm 30.23 1024 10 16.0934 0 0
8:15 am 08:15 Sunny 57 13.8 57 13.7 99 99 Calm 30.23 1024 10 16.0934 0 0
8:35 am 08:35 Sunny 58 14.7 58 14.6 99 99 Calm 30.23 1024 10 16.0934 0 0
8:55 am 08:55 Sunny 61 16 58 14.4 90 90 Calm 30.23 1024 10 16.0934 0 0
9:15 am 09:15 Sunny 64 17.5 57 13.9 80 80 Calm 30.22 1023 10 16.0934 0 0
9:35 am 09:35 Sunny 66 19 58 14.5 75 75 Calm 30.22 1023 10 16.0934 0 0
9:55 am 09:55 Sunny 68 20.1 58 14.6 71 71 Calm 30.21 1023 10 16.0934 0 0
10:15 am 10:15 Sunny 71 21.6 58 14.3 63 63 ESE 5 7 30.2 1023 10 16.0934 0 0
10:35 am 10:35 Sunny 72 22.4 58 14.5 61 61 Calm 30.2 1023 10 16.0934 0 0
10:55 am 10:55 Sunny 74 23.2 59 14.8 59 59 ESE 3 6 30.2 1023 10 16.0934 0 0
11:10 am 11:10 Sunny 75 23.8 59 14.9 58 58 Calm 30.19 1022 10 16.0934 0 0
11:35 am 11:35 Sunny 75 24 58 14.4 55 55 Calm 30.19 1022 10 16.0934 0 0
11:55 am 11:55 Sunny 77 25 57 14 51 51 S 6 9 30.17 1022 10 16.0934 0 0
12:15 pm 12:15 Sunny 77 25.1 57 13.7 49 49 Calm 30.18 1022 10 16.0934 0 0
12:35 pm 12:35 Sunny 79 26.3 58 14.2 47 47 SSW 6 9 30.17 1022 10 16.0934 0 0
12:55 pm 12:55 Sunny 80 26.5 59 14.8 49 49 SSW 7 11 30.18 1022 10 16.0934 0 0
1:15 pm 13:15 Sunny 81 27 60 15.6 50 50 S 7 11 30.17 1022 10 16.0934 0 0
1:35 pm 13:35 Sunny 82 27.5 60 15.3 47 47 SSW 7 11 30.16 1021 10 16.0934 0 0
1:55 pm 13:55 Sunny 82 27.8 59 15.2 46 46 SW 6 9 30.15 1021 10 16.0934 0 0
2:15 pm 14:15 Sunny 83 28.2 60 15.5 46 46 SSW 6 9 30.14 1021 10 16.0934 0 0
2:35 pm 14:35 Sunny 84 28.7 60 15.6 45 45 WSW 14 22 30.12 1020 10 16.0934 0 0
2:55 pm 14:55 Sunny 82 28 61 16 48 48 SW 10 17 30.12 1020 10 16.0934 0 0
3:15 pm 15:15 Sunny 83 28.4 61 16 47 47 SSW 7 11 30.1 1019 10 16.0934 0 0
3:35 pm 15:35 Sunny 83 28.2 60 15.8 47 47 SSW 12 19 30.08 1018 10 16.0934 0 0
3:55 pm 15:55 Sunny 84 28.7 61 15.9 46 46 SSW 15 24 30.05 1018 10 16.0934 0 0
4:15 pm 16:15 Sunny 83 28.5 60 15.8 46 46 S 8 13 30.04 1017 10 16.0934 0 0
4:35 pm 16:35 Partly Cloudy 82 27.5 59 15.1 47 47 S 9 15 30.01 1016 10 16.0934 0 0
4:55 pm 16:55 Partly Cloudy 81 27 58 14.7 47 47 S 14 22 30.02 1017 10 16.0934 0 0
5:15 pm 17:15 Sunny 82 27.8 59 15 46 46 S 9 15 30.02 1016 10 16.0934 0 0
5:35 pm 17:35 Sunny 81 27.4 59 15.2 47 47 SSW 9 15 30.03 1017 10 16.0934 0 0
5:55 pm 17:55 Sunny 80 26.9 61 16 51 51 S 16 26 30.02 1017 10 16.0934 0 0
6:15 pm 18:15 Sunny 81 27.1 62 16.4 52 52 S 14 22 30.02 1017 10 16.0934 0 0
6:35 pm 18:35 Sunny 80 26.7 60 15.5 50 50 S 16 26 30.02 1017 10 16.0934 0 0
6:55 pm 18:55 Sunny 79 26.2 59 15.2 51 51 SSW 6 9 30.02 1017 10 16.0934 0 0
7:15 pm 19:15 Sunny 79 26 60 15.3 52 52 SSW 7 11 30.02 1017 10 16.0934 0 0
7:35 pm 19:35 Sunny 78 25.5 60 15.3 53 53 S 7 11 30.01 1016 10 16.0934 0 0
7:55 pm 19:55 Sunny 77 25.2 61 15.9 56 56 S 8 13 30 1016 10 16.0934 0 0
8:15 pm 20:15 Clear 76 24.6 61 16.3 60 60 S 5 7 30.01 1016 10 16.0934 0 0
8:35 pm 20:35 Clear 74 23.4 62 16.5 65 65 SSW 5 7 30.02 1016 10 16.0934 0 0
8:55 pm 20:55 Clear 73 22.6 62 16.7 69 69 SSW 5 7 30.02 1017 10 16.0934 0 0
9:15 pm 21:15 Clear 74 23.1 63 17 69 69 SSW 6 9 30.02 1017 10 16.0934 0 0
9:35 pm 21:35 Clear 70 20.9 63 17.1 79 79 SSW 3 6 30.03 1017 10 16.0934 0 0
9:55 pm 21:55 Clear 68 19.8 63 17.4 86 86 WSW 3 6 30.04 1017 10 16.0934 0 0
10:15 pm 22:15 Clear 66 19 63 17.1 89 89 SSW 5 7 30.03 1017 10 16.0934 0 0
10:35 pm 22:35 Clear 68 20 63 17.3 85 85 SSW 8 13 30 1016 10 16.0934 0 0
10:55 pm 22:55 Clear 70 21.1 62 16.9 77 77 SSW 9 15 30 1016 10 16.0934 0 0
11:15 pm 23:15 Clear 69 20.6 62 16.8 79 79 SSW 3 6 30.01 1016 10 16.0934 0 0
11:35 pm 23:35 Clear 67 19.7 62 16.7 83 83 SSW 5 7 30.02 1016 10 16.0934 0 0
11:55 pm 23:55 Clear 68 19.8 62 16.5 81 81 SSW 5 7 30.02 1016 10 16.0934 0 0

Powered by AerisWeather